This is the latest recevied weather packets stored in our database for station/object K7TUS-6. If no packets are shown the sender has not sent any weather packets the latest 1 day(s).
| Time | Temp. | Humidity | Pressure | Rain* | Wind** | Luminosity | Snow |
|---|---|---|---|---|---|---|---|
| 1777979407 | 5° C | 44% | 975.1 hPa | - | 7.15 m/s, 331° | - | - |
| 1777979106 | 4.44° C | 44% | 975.1 hPa | - | 8.05 m/s, 310° | - | - |
| 1777978806 | 4.44° C | 45% | 976.2 hPa | - | 6.26 m/s, 333° | - | - |
| 1777978505 | 4.44° C | 44% | 976.4 hPa | - | 8.49 m/s, 312° | - | - |
| 1777978205 | 4.44° C | 44% | 976.4 hPa | - | 8.49 m/s, 312° | - | - |
| 1777977904 | 4.44° C | 46% | 976.1 hPa | - | 8.94 m/s, 304° | - | - |
| 1777977604 | 4.44° C | 45% | 976 hPa | - | 7.15 m/s, 330° | - | - |
| 1777977303 | 4.44° C | 45% | 976 hPa | - | 7.6 m/s, 310° | - | - |
| 1777977008 | 4.44° C | 45% | 976.3 hPa | - | 8.49 m/s, 330° | - | - |
| 1777976708 | 4.44° C | 44% | 976.9 hPa | - | 8.05 m/s, 322° | - | - |
| 1777976407 | 4.44° C | 46% | 976.9 hPa | - | 7.6 m/s, 322° | - | - |
| 1777976106 | 4.44° C | 44% | 976.5 hPa | - | 7.6 m/s, 333° | - | - |
| 1777975806 | 3.89° C | 46% | 976.4 hPa | - | 6.26 m/s, 290° | - | - |
| 1777975205 | 4.44° C | 45% | 976 hPa | - | 6.71 m/s, 325° | - | - |
| 1777974904 | 4.44° C | 45% | 975.3 hPa | - | 6.26 m/s, 338° | - | - |
| 1777974604 | 4.44° C | 45% | 976 hPa | - | 7.15 m/s, 304° | - | - |
| 1777974303 | 3.89° C | 46% | 975.5 hPa | - | 5.81 m/s, 290° | - | - |
| 1777974003 | 3.89° C | 47% | 976.6 hPa | - | 5.81 m/s, 339° | - | - |
| 1777973402 | 3.89° C | 45% | 976.7 hPa | - | 7.15 m/s, 301° | - | - |
| 1777973108 | 3.89° C | 45% | 976.3 hPa | - | 8.05 m/s, 293° | - | - |
| 1777972807 | 3.89° C | 45% | 976 hPa | - | 7.6 m/s, 301° | - | - |
| 1777972507 | 3.89° C | 45% | 976.7 hPa | - | 8.49 m/s, 328° | - | - |
| 1777972206 | 3.89° C | 44% | 976.8 hPa | - | 8.49 m/s, 305° | - | - |
| 1777971905 | 3.89° C | 46% | 977.5 hPa | - | 5.36 m/s, 324° | - | - |
| 1777971604 | 3.89° C | 45% | 977.3 hPa | - | 7.6 m/s, 299° | - | - |
* Rain since midnight (hover to see other rain measurements)
** Current wind speed in m/s (hover to see current wind gust speed)